Location: Unspecified
(0.0000°N, 0.0000°E)
Time: 17:52:31
(UTC+00:00)

STARLINK 1044 - Pass Details

Date: 16 January 2020
Orbit: 443 x 445 km, 53.0° (Epoch: 18 January)

Event Time Altitude Azimuth Distance (km) Brightness Sun altitude
Rises 04:55:59 0° 182° (S) 2,430 7.2 -17.1°
Reaches altitude 10° 04:59:14 10° 149° (SSE) 1,557 6.7 -16.4°
Maximum altitude 05:00:39 12° 125° (SE) 1,436 6.9 -16.0°
Drops below altitude 10° 05:02:04 10° 101° (E) 1,554 7.2 -15.7°
Sets 05:05:18 0° 68° (ENE) 2,420 7.7 -15.0°
